FW7582 Weather Reports


time (UTC)temp
C
wind
direction
speed
KPH
gust
KPH
rain 1hr
cm
rain 24hr
cm
rain mn
cm
humidity
%
barometer
mb
20260507033710 12 358 0.0 0.0 0.00 0.00 0.00 91 1024.1
20260507033206 12 358 0.0 0.0 0.00 0.00 0.00 91 1023.8
20260507032704 12 358 0.0 0.0 0.00 0.00 0.00 91 1024.1
20260507032159 12 358 0.0 0.0 0.00 0.00 0.00 91 1023.8
20260507031657 12 358 0.0 0.0 0.00 0.00 0.00 90 1024.0
20260507031153 12 358 0.0 0.0 0.00 0.00 0.00 90 1023.8
20260507030650 12 358 0.0 0.0 0.00 0.00 0.00 89 1023.8
20260507030148 12 358 0.0 0.0 0.00 0.00 0.00 89 1023.7
20260507025645 12 358 0.0 0.0 0.00 0.00 0.00 88 1023.8
20260507025142 12 358 0.0 0.0 0.00 0.00 0.00 88 1023.9
20260507024640 12 358 0.0 0.0 0.00 0.00 0.00 88 1023.7
20260507024137 12 358 0.0 0.0 0.00 0.00 0.00 88 1023.8
20260507023632 12 358 0.0 0.0 0.00 0.00 0.00 87 1023.8
20260507023130 12 351 0.0 0.0 0.00 0.00 0.00 87 1023.5
20260507022626 12 351 0.0 0.0 0.00 0.00 0.00 86 1023.7
20260507022122 12 2 0.0 0.0 0.00 0.00 0.00 87 1023.6
20260507021619 12 334 0.0 0.0 0.00 0.00 0.00 87 1023.7
20260507021114 12 349 0.0 0.0 0.00 0.00 0.00 86 1023.8
20260507020613 13 343 0.0 0.0 0.00 0.00 0.00 84 1023.6
20260507020108 13 354 0.0 0.0 0.00 0.00 0.00 85 1023.7
20260507015607 13 354 0.0 0.0 0.00 0.00 0.00 84 1023.6
20260507015104 13 304 0.0 0.0 0.00 0.00 0.00 84 1023.7
20260507014601 13 327 0.0 0.0 0.00 0.00 0.00 83 1023.7
20260507014056 13 7 0.0 0.0 0.00 0.00 0.00 84 1023.5
20260507013553 13 355 0.0 0.0 0.00 0.00 0.00 85 1023.8
20260507013050 13 334 0.0 0.0 0.00 0.00 0.00 86 1023.6
20260507012548 13 356 0.0 0.0 0.00 0.00 0.00 85 1023.7
20260507012044 13 358 0.0 0.0 0.00 0.00 0.00 84 1023.6
20260507011542 13 11 0.0 0.0 0.00 0.00 0.00 82 1023.5
20260507011037 13 15 0.0 0.0 0.00 0.00 0.00 85 1023.7
20260507010532 13 23 0.0 0.0 0.00 0.00 0.00 84 1023.6
20260507010029 13 349 0.0 0.0 0.00 0.00 0.00 82 1023.7
20260507005526 13 42 0.0 0.0 0.00 0.00 0.00 84 1023.8
20260507005022 13 14 0.0 0.0 0.00 0.00 0.00 86 1023.8
20260507004519 13 11 0.0 0.0 0.00 0.00 0.00 84 1023.9
20260507004017 13 37 0.0 0.0 0.00 0.00 0.00 83 1023.8
20260507003512 13 0 0.0 0.0 0.00 0.00 0.00 84 1023.8
20260507003008 13 345 0.0 0.0 0.00 0.00 0.00 84 1023.8
20260507002504 13 329 0.0 0.0 0.00 0.00 0.00 81 1023.8
20260507002001 13 11 0.0 0.0 0.00 0.00 0.00 85 1023.8
20260507001457 13 39 0.0 0.0 0.00 0.00 0.00 85 1024.0
20260507000955 13 341 0.0 0.0 0.00 0.00 0.00 83 1024.0
20260507000450 13 340 0.0 0.0 0.00 0.00 0.00 83 1023.9
20260506235946 13 319 0.0 0.0 0.00 0.00 0.00 83 1024.0
20260506235444 13 345 0.0 0.0 0.00 0.00 0.00 83 1023.8
20260506234939 13 13 0.0 0.0 0.00 0.00 0.00 85 1024.0
20260506234437 13 16 0.0 0.0 0.00 0.00 0.00 85 1023.9
20260506233934 13 11 0.0 0.0 0.00 0.00 0.00 85 1023.8
20260506233431 13 25 0.0 0.0 0.00 0.00 0.00 84 1024.0
20260506232927 13 17 0.0 0.0 0.00 0.00 0.00 85 1023.8
20260506232424 13 345 0.0 0.0 0.00 0.00 0.00 84 1024.1
20260506231919 12 359 0.0 0.0 0.00 0.00 0.00 84 1023.8
20260506231417 12 3 0.0 0.0 0.00 0.00 0.00 86 1023.9
20260506230914 12 26 0.0 0.0 0.00 0.00 0.00 86 1023.9
20260506230411 12 17 0.0 0.0 0.00 0.00 0.00 85 1024.1
20260506225907 12 334 0.0 0.0 0.00 0.00 0.00 85 1024.1
20260506225404 12 337 0.0 3.2 0.00 0.00 0.00 85 1024.1
20260506224901 12 344 0.0 1.6 0.00 0.00 0.00 85 1024.1
20260506224359 12 357 0.0 0.0 0.00 0.00 0.00 88 1023.8
20260506223855 12 268 0.0 1.6 0.00 0.00 0.00 85 1024.0
20260506223350 12 92 0.0 1.6 0.00 0.00 0.00 86 1024.2
20260506222848 12 290 1.6 3.2 0.00 0.00 0.00 88 1024.1
20260506222343 12 350 0.0 0.0 0.00 0.00 0.00 89 1024.1
20260506221841 12 337 0.0 0.0 0.00 0.00 0.00 89 1024.1
20260506221338 12 170 0.0 0.0 0.00 0.00 0.00 89 1024.2
20260506220836 12 16 0.0 0.0 0.00 0.00 0.00 90 1024.0
20260506220331 12 337 0.0 0.0 0.00 0.00 0.00 89 1024.1
20260506215828 12 208 0.0 1.6 0.00 0.00 0.00 92 1024.3
20260506215324 12 283 0.0 1.6 0.00 0.00 0.00 92 1024.1
20260506214820 12 13 0.0 0.0 0.00 0.00 0.00 93 1024.1
20260506214317 12 345 0.0 0.0 0.00 0.00 0.00 93 1024.1
20260506213815 12 357 0.0 0.0 0.00 0.00 0.00 93 1024.4
20260506213312 12 350 0.0 0.0 0.00 0.00 0.00 92 1024.2
20260506212810 12 341 0.0 0.0 0.00 0.00 0.00 91 1024.3
20260506212306 12 313 0.0 0.0 0.00 0.00 0.00 90 1024.2
20260506211800 12 349 0.0 0.0 0.00 0.00 0.00 91 1024.1
20260506211256 12 353 0.0 0.0 0.00 0.00 0.00 91 1024.3
20260506210754 12 337 0.0 0.0 0.00 0.00 0.00 90 1023.9
20260506210251 12 3 0.0 0.0 0.00 0.00 0.00 90 1023.9
20260506205748 12 10 0.0 0.0 0.00 0.00 0.00 90 1023.9
20260506205243 13 344 0.0 0.0 0.00 0.00 0.00 91 1023.9
20260506204740 12 354 0.0 0.0 0.00 0.00 0.00 91 1024.1
20260506204238 12 351 0.0 0.0 0.00 0.00 0.00 91 1024.1
20260506203736 13 20 0.0 0.0 0.00 0.00 0.00 90 1023.8
20260506203232 13 359 0.0 0.0 0.00 0.00 0.00 90 1023.9
20260506202730 13 315 0.0 1.6 0.00 0.00 0.00 89 1024.0
20260506202226 13 337 0.0 0.0 0.00 0.00 0.00 88 1024.0
20260506201723 13 28 0.0 0.0 0.00 0.00 0.00 87 1023.7
20260506201220 13 309 0.0 0.0 0.00 0.00 0.00 87 1024.0
20260506200717 13 344 0.0 0.0 0.00 0.00 0.00 87 1023.9
20260506200214 13 308 0.0 0.0 0.00 0.00 0.00 87 1023.6
20260506195710 13 266 0.0 0.0 0.00 0.00 0.00 86 1023.6
20260506195207 13 285 0.0 0.0 0.00 0.00 0.00 88 1023.8
20260506194704 13 343 0.0 0.0 0.00 0.00 0.00 87 1023.7
20260506194200 13 347 0.0 4.8 0.00 0.00 0.00 86 1023.7
20260506193658 13 109 1.6 3.2 0.00 0.00 0.00 87 1023.6
20260506193155 13 321 0.0 1.6 0.00 0.00 0.00 88 1023.7
20260506192652 13 296 0.0 1.6 0.00 0.00 0.00 87 1023.3
20260506192148 13 31 0.0 0.0 0.00 0.00 0.00 87 1023.6
20260506191645 13 324 0.0 1.6 0.00 0.00 0.00 88 1023.5
20260506191141 13 277 1.6 3.2 0.00 0.00 0.00 88 1023.6
20260506190638 13 327 0.0 0.0 0.00 0.00 0.00 89 1023.7
20260506190135 13 283 0.0 0.0 0.00 0.00 0.00 90 1023.6
20260506185632 13 6 0.0 0.0 0.00 0.00 0.00 90 1023.4
20260506185128 12 314 0.0 1.6 0.00 0.00 0.00 90 1023.7
20260506184626 12 205 0.0 1.6 0.00 0.00 0.00 89 1023.5
20260506184123 13 228 1.6 3.2 0.00 0.00 0.00 89 1023.5
20260506183619 13 359 0.0 0.0 0.00 0.00 0.00 90 1023.6
20260506183115 13 357 0.0 1.6 0.00 0.00 0.00 90 1023.5
20260506182613 13 220 0.0 3.2 0.00 0.00 0.00 89 1023.5
20260506182110 13 129 1.6 3.2 0.00 0.00 0.00 89 1023.4
20260506181608 13 221 0.0 6.4 0.00 0.00 0.00 89 1023.4
20260506181105 13 283 1.6 3.2 0.00 0.00 0.00 89 1023.1
20260506180601 13 187 0.0 3.2 0.00 0.00 0.00 90 1023.2
20260506180058 13 318 0.0 3.2 0.00 0.00 0.00 91 1023.3
20260506175554 13 269 0.0 3.2 0.00 0.00 0.00 90 1023.2
20260506175050 12 329 0.0 4.8 0.00 0.00 0.00 91 1023.2
20260506174549 12 1 1.6 1.6 0.00 0.00 0.00 91 1023.3
20260506174045 12 280 0.0 3.2 0.00 0.00 0.00 92 1023.5
20260506173543 12 37 0.0 1.6 0.00 0.00 0.00 92 1023.4
20260506173039 12 17 0.0 0.0 0.00 0.00 0.00 93 1023.5
20260506172537 12 276 0.0 4.8 0.00 0.00 0.00 91 1023.4
20260506172033 12 117 0.0 3.2 0.00 0.00 0.00 93 1023.5
20260506171531 12 10 0.0 0.0 0.00 0.00 0.00 92 1023.3
20260506171023 12 175 3.2 4.8 0.00 0.00 0.00 92 1023.3
20260506170520 12 236 1.6 4.8 0.00 0.00 0.00 92 1023.3
20260506170017 12 201 1.6 3.2 0.00 0.00 0.00 91 1023.1
20260506165516 13 278 0.0 0.0 0.00 0.00 0.00 91 1023.1
20260506165011 13 320 1.6 1.6 0.00 0.00 0.00 92 1023.1
20260506164508 12 155 3.2 4.8 0.00 0.00 0.00 91 1022.9
20260506164006 12 198 1.6 3.2 0.00 0.00 0.00 91 1023.0
20260506163501 13 207 0.0 3.2 0.00 0.00 0.00 92 1022.7
20260506162955 13 297 1.6 3.2 0.00 0.00 0.00 92 1022.6
20260506162454 12 357 0.0 1.6 0.00 0.00 0.00 92 1022.5
20260506161951 12 344 0.0 1.6 0.00 0.00 0.00 92 1022.6
20260506161449 12 288 1.6 3.2 0.00 0.00 0.00 93 1022.9
20260506160941 12 217 3.2 3.2 0.00 0.00 0.00 92 1022.4
20260506160438 12 277 1.6 3.2 0.00 0.00 0.00 92 1022.7
20260506155935 12 200 1.6 4.8 0.00 0.00 0.00 92 1022.9
20260506155433 12 151 1.6 3.2 0.00 0.00 0.00 92 1022.8
20260506153559 12 33 0.0 0.0 0.00 0.00 0.00 94 1023.0
20260506153057 12 191 0.0 1.6 0.00 0.00 0.00 94 1022.8
20260506152554 12 0 0.0 1.6 0.00 0.00 0.00 94 1023.0
20260506152052 12 337 0.0 0.0 0.00 0.00 0.00 94 1022.6
20260506151549 12 344 0.0 0.0 0.00 0.00 0.00 95 1022.6
20260506151046 12 4 0.0 0.0 0.00 0.00 0.00 95 1022.6
20260506150543 12 198 0.0 0.0 0.00 0.00 0.00 97 1022.7
20260506150040 12 357 0.0 0.0 0.00 0.00 0.00 98 1022.9
20260506145536 12 350 0.0 0.0 0.00 0.00 0.00 98 1022.9
20260506145034 12 351 0.0 0.0 0.00 0.00 0.00 98 1022.8
20260506144530 11 351 0.0 0.0 0.00 0.00 0.00 98 1022.8
20260506144028 11 351 0.0 0.0 0.00 0.00 0.00 98 1023.0
20260506143526 11 351 0.0 0.0 0.00 0.00 0.00 99 1022.8
20260506143024 11 351 0.0 0.0 0.00 0.00 0.00 99 1022.4
20260506142521 11 351 0.0 0.0 0.00 0.00 0.00 99 1022.6
20260506142019 11 351 0.0 0.0 0.00 0.00 0.00 99 1022.6
20260506141517 11 351 0.0 0.0 0.00 0.00 0.00 99 1022.5
20260506141015 11 351 0.0 0.0 0.00 0.00 0.00 99 1022.7
20260506140512 11 351 0.0 0.0 0.00 0.00 0.00 99 1022.6
20260506140009 11 351 0.0 0.0 0.00 0.00 0.00 99 1022.6
20260506135506 11 351 0.0 0.0 0.00 0.00 0.00 99 1022.4
20260506135002 11 349 0.0 0.0 0.00 0.00 0.00 99 1022.6
20260506134458 11 349 0.0 0.0 0.00 0.00 0.00 99 1022.4
20260506133954 11 349 0.0 0.0 0.00 0.00 0.00 99 1022.3
20260506133452 11 349 0.0 0.0 0.00 0.00 0.00 99 1022.4
20260506132948 11 349 0.0 0.0 0.00 0.00 0.00 99 1022.4
20260506132446 11 349 0.0 0.0 0.00 0.00 0.00 99 1022.3
20260506131943 11 350 0.0 0.0 0.00 0.00 0.00 99 1021.9
20260506131439 11 350 0.0 0.0 0.00 0.00 0.00 99 1022.0
20260506130936 11 350 0.0 0.0 0.00 0.00 0.00 99 1022.1
20260506130433 11 350 0.0 0.0 0.00 0.00 0.00 99 1022.3
20260506125931 11 350 0.0 0.0 0.00 0.00 0.00 99 1022.1
20260506125429 11 350 0.0 0.0 0.00 0.00 0.00 99 1022.3
20260506124927 11 350 0.0 0.0 0.00 0.00 0.00 99 1022.2
20260506124424 11 350 0.0 0.0 0.00 0.00 0.00 99 1022.0
20260506123922 11 350 0.0 0.0 0.00 0.00 0.00 99 1022.2
20260506123420 11 350 0.0 0.0 0.00 0.00 0.00 99 1021.7
20260506122917 11 350 0.0 0.0 0.00 0.00 0.00 99 1022.0
20260506122414 11 350 0.0 0.0 0.00 0.00 0.00 99 1021.9
20260506121912 11 350 0.0 0.0 0.00 0.00 0.00 99 1022.0
20260506121409 11 350 0.0 0.0 0.00 0.00 0.00 99 1022.0
20260506120906 11 350 0.0 0.0 0.00 0.00 0.00 99 1021.9
20260506120403 11 350 0.0 0.0 0.00 0.00 0.00 99 1021.6
20260506115900 11 350 0.0 0.0 0.00 0.00 0.00 99 1021.7
20260506115358 11 350 0.0 0.0 0.00 0.00 0.00 99 1021.5
20260506114856 11 350 0.0 0.0 0.00 0.00 0.00 99 1021.5
20260506114353 11 350 0.0 0.0 0.00 0.00 0.00 99 1021.6
20260506113853 11 350 0.0 0.0 0.00 0.00 0.00 99 1021.6
20260506113349 11 350 0.0 0.0 0.00 0.00 0.00 99 1021.5
20260506112846 11 350 0.0 0.0 0.00 0.00 0.00 99 1021.5
20260506112343 11 350 0.0 0.0 0.00 0.00 0.00 99 1021.4
20260506111840 11 349 0.0 0.0 0.00 0.00 0.00 99 1021.6
20260506111338 11 349 0.0 0.0 0.00 0.00 0.00 99 1021.4
20260506110836 11 349 0.0 0.0 0.00 0.00 0.00 99 1021.5
20260506110333 11 349 0.0 0.0 0.00 0.00 0.00 99 1021.4
20260506105830 11 348 0.0 0.0 0.00 0.00 0.00 99 1021.5
20260506105326 11 348 0.0 0.0 0.00 0.00 0.00 99 1021.2
20260506104823 11 348 0.0 0.0 0.00 0.00 0.00 99 1021.1
20260506104321 10 348 0.0 0.0 0.00 0.00 0.00 99 1021.0
20260506103819 10 349 0.0 0.0 0.00 0.00 0.00 99 1021.4
20260506103316 10 349 0.0 0.0 0.00 0.00 0.00 99 1021.0
20260506102813 10 349 0.0 0.0 0.00 0.00 0.00 99 1021.0
20260506102311 10 349 0.0 0.0 0.00 0.00 0.00 99 1021.2
20260506101808 10 349 0.0 0.0 0.00 0.00 0.00 99 1021.0
20260506101304 10 349 0.0 0.0 0.00 0.00 0.00 99 1021.0
20260506100802 10 349 0.0 0.0 0.00 0.00 0.00 99 1020.8
20260506100300 10 349 0.0 0.0 0.00 0.00 0.00 99 1020.9
20260506095758 10 349 0.0 0.0 0.00 0.00 0.00 99 1020.8
20260506095255 10 349 0.0 0.0 0.00 0.00 0.00 99 1020.8
20260506094751 10 349 0.0 0.0 0.00 0.00 0.00 99 1020.8
20260506094250 10 349 0.0 0.0 0.00 0.00 0.00 99 1020.6
20260506093748 10 349 0.0 0.0 0.00 0.00 0.00 99 1021.0
20260506093245 10 349 0.0 0.0 0.00 0.00 0.00 99 1020.7
20260506092743 10 350 0.0 0.0 0.00 0.00 0.00 99 1020.7
20260506092241 10 350 0.0 0.0 0.00 0.00 0.00 99 1020.4
20260506091738 10 350 0.0 0.0 0.00 0.00 0.00 99 1020.4
20260506091235 10 350 0.0 0.0 0.00 0.00 0.00 99 1020.4
20260506090733 10 350 0.0 0.0 0.00 0.00 0.00 99 1020.6
20260506090229 10 351 0.0 0.0 0.00 0.00 0.00 99 1020.3
20260506085726 10 351 0.0 0.0 0.00 0.00 0.00 99 1020.3
20260506085223 10 350 0.0 0.0 0.00 0.00 0.00 99 1020.3
20260506084719 10 350 0.0 0.0 0.00 0.00 0.00 99 1020.4
20260506084215 10 350 0.0 0.0 0.00 0.00 0.00 99 1020.1
20260506083713 10 350 0.0 0.0 0.00 0.00 0.00 99 1020.1
20260506083210 10 350 0.0 0.0 0.00 0.00 0.00 99 1020.2
20260506082707 9 351 0.0 0.0 0.00 0.00 0.00 99 1020.3
20260506082203 9 351 0.0 0.0 0.00 0.00 0.00 99 1020.3
20260506081701 9 351 0.0 0.0 0.00 0.00 0.00 99 1020.2
20260506081158 9 351 0.0 0.0 0.00 0.00 0.00 99 1020.1
20260506080656 9 351 0.0 0.0 0.00 0.00 0.00 99 1020.2
20260506080152 9 351 0.0 0.0 0.00 0.00 0.00 99 1020.3
20260506073136 10 351 0.0 0.0 0.00 0.00 0.00 99 1020.2
20260506072633 10 350 0.0 0.0 0.00 0.00 0.00 99 1020.1
20260506072131 10 350 0.0 0.0 0.00 0.00 0.00 99 1020.3
20260506071628 10 353 0.0 0.0 0.00 0.00 0.00 99 1020.2
20260506071126 10 353 0.0 0.0 0.00 0.00 0.00 99 1020.2
20260506070622 10 353 0.0 0.0 0.00 0.00 0.00 99 1020.1
20260506070119 10 353 0.0 0.0 0.00 0.00 0.00 99 1020.0
20260506062057 10 352 0.0 0.0 0.00 0.00 0.00 99 1019.7
20260506061552 10 352 0.0 0.0 0.00 0.00 0.00 98 1019.5
20260506061050 10 352 0.0 0.0 0.00 0.00 0.00 98 1019.5
20260506060549 10 352 0.0 0.0 0.00 0.00 0.00 98 1019.4
20260506051017 11 351 0.0 0.0 0.00 0.00 0.00 97 1019.0
20260506050515 11 351 0.0 0.0 0.00 0.00 0.00 96 1019.0
20260506045006 11 351 0.0 0.0 0.00 0.00 0.00 96 1019.1
20260506044504 11 350 0.0 0.0 0.00 0.00 0.00 96 1018.9
20260506044000 12 350 0.0 0.0 0.00 0.00 0.00 96 1018.9
20260506043457 12 350 0.0 0.0 0.00 0.00 0.00 95 1018.7
20260506042955 12 350 0.0 0.0 0.00 0.00 0.00 95 1018.9
20260506042454 12 350 0.0 0.0 0.00 0.00 0.00 94 1018.8
20260506041952 12 350 0.0 0.0 0.00 0.00 0.00 94 1018.9
20260506041450 12 350 0.0 0.0 0.00 0.00 0.00 94 1018.9
20260506040947 12 350 0.0 0.0 0.00 0.00 0.00 94 1018.9
20260506040445 12 350 0.0 0.0 0.00 0.00 0.00 94 1018.8
20260506035940 12 350 0.0 0.0 0.00 0.00 0.00 94 1018.8
20260506035438 13 350 0.0 0.0 0.00 0.00 0.00 93 1018.8
20260506034934 13 350 0.0 0.0 0.00 0.00 0.00 92 1018.8
20260506034432 13 350 0.0 0.0 0.00 0.00 0.00 92 1018.6